Time,TemperatureF,DewpointF,PressureIn,WindDirection,WindDirectionDegrees,WindSpeedMPH,WindSpeedGustMPH,Humidity,HourlyPrecipIn,Conditions,Clouds,dailyrainin,SolarRadiationWatts/m^2,SoftwareType,DateUTC
2013-02-27 00:02:00,28.0,22.0,-100.00,ENE,66,8.0,14.0,79,0.00,,,0.05,1.000000,,2013-02-27 06:02:00,
2013-02-27 00:11:00,28.0,22.0,-100.00,ENE,66,8.0,14.0,79,0.00,,,0.05,1.000000,,2013-02-27 06:11:00,
2013-02-27 00:21:00,28.0,22.0,-100.00,ENE,66,8.0,14.0,79,0.00,,,0.05,1.000000,,2013-02-27 06:21:00,
2013-02-27 00:33:00,28.0,22.0,-100.00,ENE,66,8.0,14.0,79,0.00,,,0.05,1.000000,,2013-02-27 06:33:00,
2013-02-27 01:01:00,28.0,23.0,-100.00,NE,49,7.0,11.0,80,0.00,,,0.05,1.000000,,2013-02-27 07:01:00,
2013-02-27 01:12:00,28.0,23.0,-100.00,NE,49,7.0,11.0,80,0.00,,,0.05,1.000000,,2013-02-27 07:12:00,
2013-02-27 01:21:00,28.0,23.0,-100.00,NE,49,7.0,11.0,80,0.00,,,0.05,1.000000,,2013-02-27 07:21:00,
2013-02-27 01:32:00,28.0,23.0,-100.00,NE,49,7.0,11.0,80,0.00,,,0.05,1.000000,,2013-02-27 07:32:00,
2013-02-27 01:52:00,28.0,23.0,-100.00,NE,47,7.0,12.0,80,0.00,,,0.05,1.000000,,2013-02-27 07:52:00,
2013-02-27 02:01:00,28.0,23.0,-100.00,NE,47,7.0,12.0,80,0.00,,,0.05,1.000000,,2013-02-27 08:01:00,
2013-02-27 02:11:00,28.0,23.0,-100.00,NE,47,7.0,12.0,80,0.00,,,0.05,1.000000,,2013-02-27 08:11:00,
2013-02-27 02:21:00,28.0,23.0,-100.00,NE,47,7.0,12.0,80,0.00,,,0.05,1.000000,,2013-02-27 08:21:00,
2013-02-27 02:32:00,28.0,23.0,-100.00,NE,47,7.0,12.0,80,0.00,,,0.05,1.000000,,2013-02-27 08:32:00,
2013-02-27 03:02:00,28.0,23.0,-100.00,NE,46,9.0,17.0,82,0.00,,,0.05,1.000000,,2013-02-27 09:02:00,
2013-02-27 03:12:00,28.0,23.0,-100.00,NE,46,9.0,17.0,82,0.00,,,0.05,1.000000,,2013-02-27 09:12:00,
2013-02-27 03:22:00,28.0,23.0,-100.00,NE,46,9.0,17.0,82,0.00,,,0.05,1.000000,,2013-02-27 09:22:00,
2013-02-27 03:32:00,28.0,23.0,-100.00,NE,46,9.0,17.0,82,0.00,,,0.05,1.000000,,2013-02-27 09:32:00,
2013-02-27 03:52:00,27.0,22.0,-100.00,NE,44,10.0,19.0,81,0.00,,,0.05,1.000000,,2013-02-27 09:52:00,
2013-02-27 04:01:00,27.0,22.0,-100.00,NE,44,10.0,19.0,81,0.00,,,0.05,1.000000,,2013-02-27 10:01:00,
2013-02-27 04:12:00,27.0,22.0,-100.00,NE,44,10.0,19.0,81,0.00,,,0.05,1.000000,,2013-02-27 10:12:00,
2013-02-27 04:22:00,27.0,22.0,-100.00,NE,44,10.0,19.0,81,0.00,,,0.05,1.000000,,2013-02-27 10:22:00,
2013-02-27 04:32:00,27.0,22.0,-100.00,NE,44,10.0,19.0,81,0.00,,,0.05,1.000000,,2013-02-27 10:32:00,
2013-02-27 05:02:00,27.0,23.0,-100.00,NE,47,9.0,16.0,84,0.00,,,0.05,1.000000,,2013-02-27 11:02:00,
2013-02-27 05:12:00,27.0,23.0,-100.00,NE,47,9.0,16.0,84,0.00,,,0.05,1.000000,,2013-02-27 11:12:00,
2013-02-27 05:22:00,27.0,23.0,-100.00,NE,47,9.0,16.0,84,0.00,,,0.05,1.000000,,2013-02-27 11:22:00,
2013-02-27 05:32:00,27.0,23.0,-100.00,NE,47,9.0,16.0,84,0.00,,,0.05,1.000000,,2013-02-27 11:32:00,
2013-02-27 05:52:00,27.0,23.0,-100.00,NE,55,11.0,17.0,85,0.00,,,0.05,1.000000,,2013-02-27 11:52:00,
2013-02-27 06:02:00,27.0,23.0,-100.00,NE,55,11.0,17.0,85,0.00,,,0.05,1.000000,,2013-02-27 12:02:00,
2013-02-27 06:13:00,27.0,23.0,-100.00,NE,55,11.0,17.0,85,0.00,,,0.05,1.000000,,2013-02-27 12:13:00,
2013-02-27 06:22:00,27.0,23.0,-100.00,NE,55,11.0,17.0,85,0.00,,,0.05,1.000000,,2013-02-27 12:22:00,
2013-02-27 06:33:00,27.0,23.0,-100.00,NE,55,11.0,17.0,85,0.00,,,0.05,1.000000,,2013-02-27 12:33:00,
2013-02-27 07:02:00,26.0,23.0,-100.00,NE,43,9.0,18.0,87,0.00,,,0.05,1.000000,,2013-02-27 13:02:00,
2013-02-27 07:11:00,26.0,23.0,-100.00,NE,43,9.0,18.0,87,0.00,,,0.05,1.000000,,2013-02-27 13:11:00,
2013-02-27 07:22:00,26.0,23.0,-100.00,NE,43,9.0,18.0,87,0.00,,,0.05,1.000000,,2013-02-27 13:22:00,
2013-02-27 07:32:00,26.0,23.0,-100.00,NE,43,9.0,18.0,87,0.00,,,0.05,1.000000,,2013-02-27 13:32:00,
2013-02-27 08:02:00,26.0,23.0,-100.00,NE,41,9.0,17.0,87,0.00,,,0.05,7.000000,,2013-02-27 14:02:00,
2013-02-27 08:12:00,26.0,23.0,-100.00,NE,41,9.0,17.0,87,0.00,,,0.05,7.000000,,2013-02-27 14:12:00,
2013-02-27 08:22:00,26.0,23.0,-100.00,NE,41,9.0,17.0,87,0.00,,,0.05,7.000000,,2013-02-27 14:22:00,
2013-02-27 08:32:00,26.0,23.0,-100.00,NE,41,9.0,17.0,87,0.00,,,0.05,7.000000,,2013-02-27 14:32:00,
2013-02-27 09:02:00,27.0,23.0,-100.00,NE,50,9.0,22.0,85,0.00,,,0.05,31.000000,,2013-02-27 15:02:00,
2013-02-27 09:12:00,27.0,23.0,-100.00,NE,50,9.0,22.0,85,0.00,,,0.05,31.000000,,2013-02-27 15:12:00,
2013-02-27 09:22:00,27.0,23.0,-100.00,NE,50,9.0,22.0,85,0.00,,,0.05,31.000000,,2013-02-27 15:22:00,
2013-02-27 09:32:00,27.0,23.0,-100.00,NE,50,9.0,22.0,85,0.00,,,0.05,31.000000,,2013-02-27 15:32:00,
2013-02-27 10:02:00,27.0,23.0,-100.00,NE,41,10.0,18.0,85,0.00,,,0.05,58.000000,,2013-02-27 16:02:00,
2013-02-27 10:12:00,27.0,23.0,-100.00,NE,41,10.0,18.0,85,0.00,,,0.05,58.000000,,2013-02-27 16:12:00,
2013-02-27 10:22:00,27.0,23.0,-100.00,NE,41,10.0,18.0,85,0.00,,,0.05,58.000000,,2013-02-27 16:22:00,
2013-02-27 10:32:00,27.0,23.0,-100.00,NE,41,10.0,18.0,85,0.00,,,0.05,58.000000,,2013-02-27 16:32:00,
2013-02-27 11:02:00,28.0,24.0,-100.00,NE,40,9.0,19.0,83,0.00,,,0.05,73.000000,,2013-02-27 17:02:00,
2013-02-27 11:11:00,28.0,24.0,-100.00,NE,40,9.0,19.0,83,0.00,,,0.05,73.000000,,2013-02-27 17:11:00,
2013-02-27 11:21:00,28.0,24.0,-100.00,NE,40,9.0,19.0,83,0.00,,,0.05,73.000000,,2013-02-27 17:21:00,
2013-02-27 11:32:00,28.0,24.0,-100.00,NE,40,9.0,19.0,83,0.00,,,0.05,73.000000,,2013-02-27 17:32:00,
2013-02-27 12:02:00,29.0,25.0,-100.00,NE,41,11.0,19.0,83,0.00,,,0.04,122.000000,,2013-02-27 18:02:00,
2013-02-27 12:11:00,29.0,25.0,-100.00,NE,41,11.0,19.0,83,0.00,,,0.04,122.000000,,2013-02-27 18:11:00,
2013-02-27 12:22:00,29.0,25.0,-100.00,NE,41,11.0,19.0,83,0.00,,,0.04,122.000000,,2013-02-27 18:22:00,
2013-02-27 12:32:00,29.0,25.0,-100.00,NE,41,11.0,19.0,83,0.00,,,0.04,122.000000,,2013-02-27 18:32:00,
2013-02-27 13:01:00,29.0,24.0,-100.00,NNE,30,9.0,16.0,82,0.00,,,0.04,94.000000,,2013-02-27 19:01:00,
2013-02-27 13:12:00,29.0,24.0,-100.00,NNE,30,9.0,16.0,82,0.00,,,0.04,94.000000,,2013-02-27 19:12:00,
2013-02-27 13:21:00,29.0,24.0,-100.00,NNE,30,9.0,16.0,82,0.00,,,0.04,94.000000,,2013-02-27 19:21:00,
2013-02-27 13:32:00,29.0,24.0,-100.00,NNE,30,9.0,16.0,82,0.00,,,0.04,94.000000,,2013-02-27 19:32:00,
2013-02-27 14:01:00,29.0,24.0,-100.00,NE,40,11.0,18.0,81,0.00,,,0.04,97.000000,,2013-02-27 20:01:00,
2013-02-27 14:12:00,29.0,24.0,-100.00,NE,40,11.0,18.0,81,0.00,,,0.04,97.000000,,2013-02-27 20:12:00,
2013-02-27 14:21:00,29.0,24.0,-100.00,NE,40,11.0,18.0,81,0.00,,,0.04,97.000000,,2013-02-27 20:21:00,
2013-02-27 14:32:00,29.0,24.0,-100.00,NE,40,11.0,18.0,81,0.00,,,0.04,97.000000,,2013-02-27 20:32:00,
2013-02-27 15:02:00,30.0,24.0,-100.00,NE,35,11.0,18.0,78,0.00,,,-99.99,93.000000,,2013-02-27 21:02:00,
2013-02-27 15:11:00,30.0,24.0,-100.00,NE,35,11.0,18.0,78,0.00,,,-99.99,93.000000,,2013-02-27 21:11:00,
2013-02-27 15:22:00,30.0,24.0,-100.00,NE,35,11.0,18.0,78,0.00,,,-99.99,93.000000,,2013-02-27 21:22:00,
2013-02-27 15:32:00,30.0,24.0,-100.00,NE,35,11.0,18.0,78,0.00,,,-99.99,93.000000,,2013-02-27 21:32:00,
2013-02-27 16:01:00,30.0,23.0,-100.00,NE,53,12.0,24.0,75,0.00,,,0.01,70.000000,,2013-02-27 22:01:00,
2013-02-27 16:11:00,30.0,23.0,-100.00,NE,53,12.0,24.0,75,0.00,,,0.01,70.000000,,2013-02-27 22:11:00,
2013-02-27 16:21:00,30.0,23.0,-100.00,NE,53,12.0,24.0,75,0.00,,,0.01,70.000000,,2013-02-27 22:21:00,
2013-02-27 16:31:00,30.0,23.0,-100.00,NE,53,12.0,24.0,75,0.00,,,0.01,70.000000,,2013-02-27 22:31:00,
2013-02-27 17:01:00,30.0,22.0,-100.00,NE,50,14.0,28.0,72,0.00,,,0.00,47.000000,,2013-02-27 23:01:00,
2013-02-27 17:11:00,30.0,22.0,-100.00,NE,50,14.0,28.0,72,0.00,,,0.00,47.000000,,2013-02-27 23:11:00,
2013-02-27 17:21:00,30.0,22.0,-100.00,NE,50,14.0,28.0,72,0.00,,,0.00,47.000000,,2013-02-27 23:21:00,
2013-02-27 17:32:00,30.0,22.0,-100.00,NE,50,14.0,28.0,72,0.00,,,0.00,47.000000,,2013-02-27 23:32:00,
2013-02-27 18:02:00,30.0,23.0,-100.00,NE,43,10.0,21.0,74,0.00,,,0.00,9.000000,,2013-02-28 00:02:00,
2013-02-27 18:12:00,30.0,23.0,-100.00,NE,43,10.0,21.0,74,0.00,,,0.00,9.000000,,2013-02-28 00:12:00,
2013-02-27 18:21:00,30.0,23.0,-100.00,NE,43,10.0,21.0,74,0.00,,,0.00,9.000000,,2013-02-28 00:21:00,
2013-02-27 18:32:00,30.0,23.0,-100.00,NE,43,10.0,21.0,74,0.00,,,0.00,9.000000,,2013-02-28 00:32:00,
2013-02-27 18:52:00,29.0,22.0,-100.00,NE,35,9.0,18.0,75,0.00,,,0.00,1.000000,,2013-02-28 00:52:00,
2013-02-27 19:01:00,29.0,22.0,-100.00,NE,35,9.0,18.0,75,0.00,,,0.00,1.000000,,2013-02-28 01:01:00,
2013-02-27 19:11:00,29.0,22.0,-100.00,NE,35,9.0,18.0,75,0.00,,,0.00,1.000000,,2013-02-28 01:11:00,
2013-02-27 19:21:00,29.0,22.0,-100.00,NE,35,9.0,18.0,75,0.00,,,0.00,1.000000,,2013-02-28 01:21:00,
2013-02-27 19:32:00,29.0,22.0,-100.00,NE,35,9.0,18.0,75,0.00,,,0.00,1.000000,,2013-02-28 01:32:00,
2013-02-27 20:01:00,29.0,22.0,-100.00,NE,38,9.0,18.0,76,0.00,,,0.00,1.000000,,2013-02-28 02:01:00,
2013-02-27 20:11:00,29.0,22.0,-100.00,NE,38,9.0,18.0,76,0.00,,,0.00,1.000000,,2013-02-28 02:11:00,
2013-02-27 20:22:00,29.0,22.0,-100.00,NE,38,9.0,18.0,76,0.00,,,0.00,1.000000,,2013-02-28 02:22:00,
2013-02-27 20:31:00,29.0,22.0,-100.00,NE,38,9.0,18.0,76,0.00,,,0.00,1.000000,,2013-02-28 02:31:00,
2013-02-27 21:01:00,29.0,23.0,-100.00,NE,41,11.0,18.0,77,0.00,,,0.00,1.000000,,2013-02-28 03:01:00,
2013-02-27 21:11:00,29.0,23.0,-100.00,NE,41,11.0,18.0,77,0.00,,,0.00,1.000000,,2013-02-28 03:11:00,
2013-02-27 21:21:00,29.0,23.0,-100.00,NE,41,11.0,18.0,77,0.00,,,0.00,1.000000,,2013-02-28 03:21:00,
2013-02-27 21:32:00,29.0,23.0,-100.00,NE,41,11.0,18.0,77,0.00,,,0.00,1.000000,,2013-02-28 03:32:00,
2013-02-27 22:02:00,28.0,24.0,-100.00,NNE,33,9.0,15.0,85,0.00,,,0.00,1.000000,,2013-02-28 04:02:00,
2013-02-27 22:11:00,28.0,24.0,-100.00,NNE,33,9.0,15.0,85,0.00,,,0.00,1.000000,,2013-02-28 04:11:00,
2013-02-27 22:21:00,28.0,24.0,-100.00,NNE,33,9.0,15.0,85,0.00,,,0.00,1.000000,,2013-02-28 04:21:00,
2013-02-27 22:32:00,28.0,24.0,-100.00,NNE,33,9.0,15.0,85,0.00,,,0.00,1.000000,,2013-02-28 04:32:00,
2013-02-27 23:01:00,27.0,24.0,-100.00,NNE,30,7.0,14.0,87,0.00,,,0.00,1.000000,,2013-02-28 05:01:00,
2013-02-27 23:11:00,27.0,24.0,-100.00,NNE,30,7.0,14.0,87,0.00,,,0.00,1.000000,,2013-02-28 05:11:00,
2013-02-27 23:22:00,27.0,24.0,-100.00,NNE,30,7.0,14.0,87,0.00,,,0.00,1.000000,,2013-02-28 05:22:00,
2013-02-27 23:31:00,27.0,24.0,-100.00,NNE,30,7.0,14.0,87,0.00,,,0.00,1.000000,,2013-02-28 05:31:00,